Change the Weather History Date:

Monday, January 7, 2013

  Actual Average Record
Temperature  
Mean Temperature 52 °F -  
Max Temperature 68 °F - - ()
Min Temperature 36 °F - - ()
Degree Days  
Heating Degree Days 13    
Growing Degree Days 2 (Base 50)    
Moisture  
Dew Point 27 °F    
Average Humidity 40    
Maximum Humidity 81    
Minimum Humidity 6    
Precipitation  
Precipitation 0.00 in - - ()
Sea Level Pressure  
Sea Level Pressure 30.08 in    
Wind  
Wind Speed 2 mph ()    
Max Wind Speed 8 mph    
Max Gust Speed -    
Visibility 1.8 miles    
Events      
T = Trace of Precipitation, MM = Missing Value Source: Averaged Metar Reports

Daily Weather History Graph

Daily Weather History Graph

Search for Another Location

Airport or City:

Trip Planner

Search our weather history database for the weather conditions in past years. The results will help you decide how hot, cold, wet, or windy it might be!

Date:

Astronomy

Jan. 07, 2013 Rise Set
Actual Time 7:16 AM IST 5:49 PM IST
Civil Twilight 6:51 AM IST 6:14 PM IST
Nautical Twilight 6:22 AM IST 6:43 PM IST
Astronomical Twilight 5:54 AM IST 7:11 PM IST
Moon 2:17 AM IST (1/7) 1:32 PM IST (1/7)
Length of Visible Light 11h 22m
Length of Day
10h 32m
Waning Crescent, 27% of the Moon is Illuminated
Jan 7
Waning Crescent
Jan 12
New
Jan 19
First Quarter
Jan 27
Full
Feb 3
Last Quarter

Hourly Weather History & Observations

Time (IST) Temp. Dew Point Humidity Pressure Visibility Wind Dir Wind Speed Gust Speed Precip Events Conditions
12:00 AM 48.2 °F 35.6 °F 62% 30.06 in 0.9 mi Calm Calm - N/A   Smoke
1:00 AM 44.6 °F 35.6 °F 71% 30.06 in 0.9 mi Calm Calm - N/A   Smoke
1:30 AM 42.8 °F 35.6 °F 76% 30.06 in 0.9 mi Calm Calm - N/A   Smoke
2:30 AM 46 °F 38 °F 65% 30.06 in 1 mi 3.5 mph - -   Smoke
2:30 AM 46.4 °F 35.6 °F 66% 30.04 in 0.9 mi Variable 1.2 mph - N/A   Smoke
3:00 AM 42.8 °F 35.6 °F 76% 30.04 in 0.9 mi Variable 1.2 mph - N/A   Smoke
5:00 AM 41.0 °F 32.0 °F 70% 30.04 in 0.9 mi Calm Calm - N/A   Smoke
6:00 AM 37.4 °F 32.0 °F 81% 30.06 in 0.9 mi Calm Calm - N/A   Smoke
7:00 AM 39.2 °F 33.8 °F 81% 30.06 in 0.7 mi Calm Calm - N/A   Smoke
8:00 AM 42.8 °F 30.2 °F 61% 30.09 in 0.6 mi Calm Calm - N/A   Smoke
8:30 AM 45 °F 35 °F 59% 30.12 in 0 mi Calm Calm - -   Smoke
10:30 AM 57.2 °F 24.8 °F 29% 30.15 in 2.2 mi WSW 5.8 mph - N/A   Haze
11:00 AM 59.0 °F 26.6 °F 29% 30.15 in 2.5 mi West 4.6 mph - N/A   Haze
11:30 AM 62 °F 24 °F 13% 30.11 in 1 mi WSW 6.9 mph - -   Haze
12:00 PM 60.8 °F 24.8 °F 25% 30.12 in 2.5 mi West 6.9 mph - N/A   Haze
1:00 PM 64.4 °F 23.0 °F 21% 30.09 in 2.5 mi WNW 6.9 mph - N/A   Haze
1:30 PM 64.4 °F 17.6 °F 16% 30.09 in 2.5 mi Variable 6.9 mph - N/A   Haze
2:00 PM 66.2 °F 15.8 °F 14% 30.06 in 2.5 mi Variable 5.8 mph - N/A   Haze
2:30 PM 66 °F 14 °F 6% 30.04 in 2 mi NNW 6.9 mph - -   Haze
2:30 PM 68.0 °F 17.6 °F 15% 30.06 in 2.5 mi NNW 8.1 mph - N/A   Haze
3:30 PM 66.2 °F 19.4 °F 17% 30.06 in 4.3 mi Variable 8.1 mph - N/A   Unknown
4:00 PM 66.2 °F 17.6 °F 15% 30.04 in 4.3 mi Variable 6.9 mph - N/A   Unknown
4:30 PM 66.2 °F 19.4 °F 17% 30.04 in 4.3 mi Variable 5.8 mph - N/A   Unknown
5:00 PM 66.2 °F 19.4 °F 17% 30.06 in 4.3 mi Variable 5.8 mph - N/A   Unknown
7:00 PM 57.2 °F 28.4 °F 33% 30.06 in 1.1 mi Calm Calm - N/A   Smoke
8:30 PM 54 °F 28 °F 25% 30.10 in 1 mi Calm Calm - -   Smoke
8:30 PM 53.6 °F 28.4 °F 38% 30.09 in 0.9 mi Calm Calm - N/A   Smoke
9:00 PM 51.8 °F 28.4 °F 41% 30.09 in 0.9 mi Calm Calm - N/A   Smoke
10:00 PM 53.6 °F 24.8 °F 33% 30.09 in 1.6 mi NNE 3.5 mph - N/A   Smoke
11:00 PM 50.0 °F 26.6 °F 40% 30.09 in 1.6 mi Calm Calm - N/A   Smoke